STARLINK-1824 (46721 NORAD) Tracking and Keplerian Element Data

This shows tracking and keplerian element data for the satellite.

Feedback or suggestion? Click here.




ElementValue
Catalog46721
NameSTARLINK-1824
Epoch Orbit729
Epoch Day335.83336806
Epoch Year2020
RAAN256.2752
Inclination53.0552
Eccentricity0.0001007
Argument of Perigee64.4345
Mean Anonmoly48.4578
Mean Motion15.62740771
Decay Rate-0.00021097
L11 46721U 20073BD 20335.83336806 -.00021097 00000-0 -22529-3 0 9996
L22 46721 53.0552 256.2752 0001007 64.4345 48.4578 15.62740771 7299

Live tracking and technical data element details for STARLINK-1824 (NORAD 46721). STARLINK-1824 can be tracked NOW for your location showing map with azimuth and elevation plus other details from your city location.

Track the satellite on the map from your city or location and see movement details for azimuth, elevation, latitude, longitude, range, height, and movement on the map or in text.







IsCatalogInMostPopularTable: catalog: 46721, numindb: 8
Update: records affected: 1



GetName: 46721 STARLINK-1824

Hit Count: updated at: Wed, 02 Dec 2020 06:27:45 GMT